Regional Weather Roundup
Issued by NWS

Home | Current Version | Previous Version | Text Only | Print | Product List | Glossary Off
Versions: 1 2 3 4 5 6 7 8 9 10 11 12 13 14 15 16 17 18 19 20 21 22 23 24 25 26 27 28 29 30 31 32 33 34 35 36 37 38 39 40 41 42 43 44 45 46 47 48 49 50

000
ASUS43 KFSD 152002
RWRSD

WEATHER ROUNDUP FOR SOUTH DAKOTA
NATIONAL WEATHER SERVICE SIOUX FALLS SD
200 PM CST FRI DEC 15 2017

NOTE: "FAIR" INDICATES FEW OR NO CLOUDS BELOW 12,000 FEET WITH NO
SIGNIFICANT WEATHER AND/OR OBSTRUCTIONS TO VISIBILITY.


SDZ001>005-009-010-012>017-152100-
NORTHWEST AND NORTH CENTRAL SOUTH DAKOTA

CITY           SKY/WX    TMP DP  RH WIND       PRES   REMARKS
BUFFALO          N/A     48  23  37 W18       29.60F
FAITH            N/A     50  22  33 W21       29.64F
MOBRIDGE       MOSUNNY   45  27  49 SW8       29.61F
$$

SDZ012>016-024>037-041>051-057-063-072>074-152100-
SOUTHWEST AND SOUTH CENTRAL SOUTH DAKOTA

CITY           SKY/WX    TMP DP  RH WIND       PRES   REMARKS
RAPID CTY ARPT CLOUDY    55  16  21 S7        29.71F
PIERRE         SUNNY     45  26  47 SW8       29.68F
CUSTER         CLOUDY    46   8  21 W10       29.77F
ELLSWORTH AFB  CLOUDY    55  16  21 SE6       29.70F
PHILIP         CLOUDY    49  27  42 W15       29.70F
PINE RIDGE     CLOUDY    51  19  28 W15G24    29.77F
SPEARFISH      FAIR      52  12  20 W24G31    29.72F
WINNER         FAIR      49  32  52 SW10      29.73F
$$

SDZ004>011-016>023-039-040-152100-
NORTHEAST SOUTH DAKOTA

CITY           SKY/WX    TMP DP  RH WIND       PRES   REMARKS
ABERDEEN       CLOUDY    38  27  64 S9        29.66F
WATERTOWN      PTSUNNY   36  29  75 SW13      29.69F
BROOKINGS      CLOUDY    39  26  59 SW10      29.72F
SISSETON         N/A     34  31  88 SE7       29.69F WCI  28
$$

SDZ017-020-022-023-036>040-048>070-152100-
SOUTHEAST SOUTH DAKOTA

CITY           SKY/WX    TMP DP  RH WIND       PRES   REMARKS
SIOUX FALLS    PTSUNNY   41  27  57 SW10      29.77F
HURON          MOSUNNY   42  27  55 S13       29.71F
CHAMBERLAIN    SUNNY     45  32  60 SW9       29.72F
MITCHELL       CLOUDY    41  26  55 S9        29.75F
YANKTON        CLOUDY    41  26  55 SW10      29.79F
$$

ABBREVIATIONS USED IN REMARKS
   TC - TEMPERATURE IN CELSIUS
  WCI - WIND CHILL INDEX
   HX - HEAT INDEX
  VSB - VISIBILITY





USA.gov is the U.S. government's official web portal to all federal, state and local government web resources and services.